Location: Musselshell
(46.5176°N, 108.0911°W)
Time: 09:08:58
(UTC+00:00)

YUBILEINY - Pass Details

Date: 03 July 2022
Orbit: 1478 x 1509 km, 82.5° (Epoch: 13 August)

Event Time Altitude Azimuth Distance (km) Brightness Sun altitude
Rises 09:58:50 0° 353° (N) 4,653 ? -11.5°
Reaches altitude 10° 10:02:08 10° 2° (N) 3,665 ? -11.1°
Maximum altitude 10:10:05 36° 67° (ENE) 2,216 ? -10.2°
Drops below altitude 10° 10:17:54 10° 131° (SE) 3,627 ? -9.4°
Sets 10:21:07 0° 140° (SE) 4,599 ? -9.0°
